GW0762 Weather Reports


Display with metric or nautical units.
time (UTC)temp
F
wind
direction
speed
MPH
gust
MPH
rain 1hr
in
rain 24hr
in
rain mn
in
humidity
%
barometer
mb
20260508141607 59 317 1.0 4.0 0.00 0.00 0.00 66 1016.2
20260508134606 52 360 1.0 2.0 0.00 0.00 0.00 91 1016.5
20260508133058 49 360 0.0 2.0 0.00 0.00 0.00 93 1016.5
20260508131604 47 360 0.0 2.0 0.00 0.00 0.00 93 1016.5
20260508130106 44 0 0.0 2.0 0.00 0.00 0.00 93 1016.7
20260508124602 42 360 0.0 2.0 0.00 0.00 0.00 93 1016.9
20260508123058 39 0 0.0 0.0 0.00 0.00 0.00 93 1016.8
20260508121600 37 0 0.0 0.0 0.00 0.00 0.00 92 1016.8
20260508120059 36 0 0.0 0.0 0.00 0.00 0.00 92 1016.7
20260508114602 35 0 0.0 0.0 0.00 0.00 0.00 92 1016.7
20260508113125 35 0 0.0 0.0 0.00 0.00 0.00 91 1016.8
20260508111558 34 0 0.0 0.0 0.00 0.00 0.00 91 1016.7
20260508110100 34 0 0.0 0.0 0.00 0.00 0.00 91 1016.5
20260508104602 34 0 0.0 0.0 0.00 0.00 0.00 91 1016.4
20260508103107 34 0 0.0 0.0 0.00 0.00 0.00 91 1016.3
20260508101600 35 0 0.0 0.0 0.00 0.00 0.00 90 1016.2
20260508100100 35 0 0.0 0.0 0.00 0.00 0.00 91 1016.2
20260508094558 35 0 0.0 0.0 0.00 0.00 0.00 90 1016.0
20260508093059 35 0 0.0 0.0 0.00 0.00 0.00 90 1016.1
20260508091600 35 0 0.0 0.0 0.00 0.00 0.00 90 1015.9
20260508084559 36 0 0.0 0.0 0.00 0.00 0.00 90 1015.9
20260508083058 36 0 0.0 0.0 0.00 0.00 0.00 90 1015.7
20260508081610 36 0 0.0 0.0 0.00 0.00 0.00 90 1015.7
20260508080059 36 0 0.0 0.0 0.00 0.00 0.00 90 1015.7
20260508074602 37 0 0.0 0.0 0.00 0.00 0.00 90 1015.7
20260508073107 37 0 0.0 0.0 0.00 0.00 0.00 90 1015.7
20260508071601 37 0 0.0 0.0 0.00 0.00 0.00 89 1015.6
20260508064609 37 0 0.0 0.0 0.00 0.00 0.00 89 1015.7
20260508063105 38 0 0.0 0.0 0.00 0.00 0.00 89 1015.8
20260508061603 38 0 0.0 0.0 0.00 0.00 0.00 89 1015.8
20260508054625 38 0 0.0 0.0 0.00 0.00 0.00 88 1015.8
20260508053115 39 0 0.0 0.0 0.00 0.00 0.00 88 1015.8
20260508051602 39 0 0.0 0.0 0.00 0.00 0.00 88 1015.8
20260508050101 39 0 0.0 0.0 0.00 0.00 0.00 87 1015.7
20260508044600 40 0 0.0 0.0 0.00 0.00 0.00 87 1015.7
20260508043101 40 0 0.0 0.0 0.00 0.00 0.00 87 1015.7
20260508041556 41 0 0.0 0.0 0.00 0.00 0.00 86 1015.7
20260508040106 41 0 0.0 0.0 0.00 0.00 0.00 86 1015.7
20260508034600 42 0 0.0 0.0 0.00 0.00 0.00 85 1015.8
20260508033059 42 0 0.0 0.0 0.00 0.00 0.00 84 1015.7
20260508031606 43 0 0.0 0.0 0.00 0.00 0.00 84 1015.7
20260508030107 43 0 0.0 0.0 0.00 0.00 0.00 83 1015.6
20260508024601 44 0 0.0 0.0 0.00 0.00 0.00 82 1015.4
20260508023101 45 0 0.0 0.0 0.00 0.00 0.00 81 1015.1
20260508021605 46 0 0.0 0.0 0.00 0.00 0.00 80 1015.0
20260508014557 47 0 0.0 0.0 0.00 0.00 0.00 77 1014.5
20260508013059 48 0 0.0 0.0 0.00 0.00 0.00 75 1014.4
20260508011611 49 0 0.0 0.0 0.00 0.00 0.00 74 1014.0
20260508010103 50 0 0.0 1.0 0.00 0.00 0.00 70 1013.8
20260508004600 52 0 0.0 2.0 0.00 0.00 0.00 69 1013.8
20260508003100 53 266 0.0 2.0 0.00 0.00 0.00 67 1013.6
20260508001600 55 360 0.0 2.0 0.00 0.00 0.00 64 1013.5
20260508000121 57 0 0.0 2.0 0.00 0.00 0.00 63 1013.2
20260507234557 58 302 1.0 6.0 0.00 0.00 0.00 48 1013.0
20260507233100 60 0 0.0 5.0 0.00 0.00 0.00 52 1012.7
20260507231614 62 360 0.0 5.0 0.00 0.00 0.00 40 1012.8
20260507230101 63 16 1.0 6.0 0.00 0.00 0.00 47 1012.7
20260507224559 63 263 0.0 10.0 0.00 0.00 0.00 43 1012.8
20260507223103 64 303 2.0 9.0 0.00 0.00 0.00 41 1012.6
20260507221603 64 360 3.0 11.0 0.00 0.00 0.00 38 1012.4
20260507220059 65 230 2.0 6.0 0.00 0.00 0.00 38 1012.3
20260507214558 66 360 2.0 8.0 0.00 0.00 0.00 38 1012.1
20260507213057 66 0 0.0 10.0 0.00 0.00 0.00 41 1012.0
20260507211609 66 360 3.0 10.0 0.00 0.00 0.00 39 1011.9
20260507204559 65 0 3.0 9.0 0.00 0.00 0.00 45 1011.8
20260507203100 66 360 2.0 7.0 0.00 0.00 0.00 40 1011.8
20260507201557 66 360 2.0 9.0 0.00 0.00 0.00 41 1011.8
20260507200103 65 360 2.0 10.0 0.00 0.00 0.00 41 1011.8
20260507194557 64 360 2.0 6.0 0.00 0.01 0.00 48 1011.9
20260507193101 64 360 3.0 9.0 0.00 0.01 0.00 44 1012.0
20260507191559 63 360 1.0 6.0 0.00 0.01 0.00 49 1012.1
20260507190100 64 360 2.0 8.0 0.00 0.01 0.00 45 1012.3
20260507184559 63 360 2.0 6.0 0.00 0.01 0.00 47 1012.4
20260507183059 64 360 3.0 10.0 0.00 0.01 0.00 46 1012.7
20260507181600 64 360 5.0 12.0 0.00 0.01 0.00 49 1012.8
20260507180107 62 360 2.0 9.0 0.00 0.01 0.00 51 1012.8
20260507174636 63 360 2.0 6.0 0.00 0.01 0.00 51 1013.0
20260507173058 64 351 2.0 8.0 0.00 0.01 0.00 53 1013.0
20260507171619 61 159 2.0 8.0 0.00 0.01 0.00 51 1013.3
20260507164601 63 360 1.0 6.0 0.00 0.01 0.00 56 1013.3
20260507163100 60 360 0.0 5.0 0.00 0.01 0.00 57 1013.5
20260507161559 60 360 1.0 4.0 0.00 0.01 0.00 58 1013.6
20260507160117 60 360 1.0 5.0 0.00 0.01 0.00 57 1013.5
20260507154558 60 322 1.0 6.0 0.00 0.01 0.00 65 1013.8
20260507153059 60 360 2.0 9.0 0.00 0.01 0.00 57 1013.8
20260507151607 60 360 2.0 8.0 0.00 0.01 0.00 57 1013.7
20260507144559 61 360 2.0 6.0 0.00 0.02 0.00 64 1013.8
20260507143118 60 360 0.0 5.0 0.00 0.02 0.00 68 1013.8
20260507141633 58 360 2.0 5.0 0.00 0.02 0.00 73 1014.0